This is the latest recevied weather packets stored in our database for station/object K6CED. If no packets are shown the sender has not sent any weather packets the latest 10 day(s).
| Time | Temp. | Humidity | Pressure | Rain* | Wind** | Luminosity | Snow |
|---|---|---|---|---|---|---|---|
| 1787422018 | 35° C | 34% | 1018.2 hPa | 0 mm | - | 785 W/m² | - |
| 1787421714 | 35° C | 35% | 1018.3 hPa | 0 mm | - | 777 W/m² | - |
| 1787421409 | 35° C | 37% | 1018.3 hPa | 0 mm | - | 766 W/m² | - |
| 1787421104 | 34.44° C | 37% | 1018.1 hPa | 0 mm | - | 759 W/m² | - |
| 1787420799 | 34.44° C | 36% | 1018.1 hPa | 0 mm | - | 749 W/m² | - |
| 1787420496 | 33.89° C | 38% | 1018.1 hPa | 0 mm | - | 740 W/m² | - |
| 1787420192 | 34.44° C | 36% | 1018.4 hPa | 0 mm | - | 728 W/m² | - |
| 1787419888 | 33.89° C | 38% | 1018.4 hPa | 0 mm | - | 718 W/m² | - |
| 1787419585 | 33.33° C | 38% | 1018.5 hPa | 0 mm | - | 706 W/m² | - |
| 1787419284 | 32.78° C | 39% | 1018.4 hPa | 0 mm | - | 691 W/m² | - |
| 1787418981 | 31.67° C | 39% | 1018.5 hPa | 0 mm | - | 682 W/m² | - |
| 1787418680 | 32.78° C | 40% | 1018.6 hPa | 0 mm | - | 668 W/m² | - |
| 1787418377 | 31.67° C | 42% | 1018.4 hPa | 0 mm | - | 651 W/m² | - |
| 1787418074 | 31.67° C | 44% | 1018.3 hPa | 0 mm | - | 637 W/m² | - |
| 1787417769 | 31.11° C | 43% | 1018.5 hPa | 0 mm | - | 619 W/m² | - |
| 1787417469 | 31.11° C | 43% | 1018.5 hPa | 0 mm | - | 599 W/m² | - |
| 1787417164 | 30.56° C | 45% | 1018.4 hPa | 0 mm | - | 579 W/m² | - |
| 1787416860 | 31.11° C | 46% | 1018.3 hPa | 0 mm | - | 561 W/m² | - |
| 1787416555 | 30.56° C | 47% | 1018.6 hPa | 0 mm | - | 546 W/m² | - |
| 1787416250 | 30° C | 48% | 1018.4 hPa | 0 mm | - | 530 W/m² | - |
| 1787415945 | 30° C | 48% | 1018.3 hPa | 0 mm | - | 520 W/m² | - |
| 1787415645 | 30° C | 49% | 1018.4 hPa | 0 mm | - | 509 W/m² | - |
| 1787415340 | 29.44° C | 51% | 1018.5 hPa | 0 mm | - | 220 W/m² | - |
| 1787415036 | 29.44° C | 50% | 1018.3 hPa | 0 mm | - | 477 W/m² | - |
| 1787414732 | 28.89° C | 51% | 1018.4 hPa | 0 mm | - | 464 W/m² | - |
* Rain latest hour (hover to see other rain measurements)
** Current wind speed in m/s (hover to see current wind gust speed)